User: anonymous   Login
Location: UBC Liquid-Mirror Observatory
(49.2876°N, 122.5728°W)
Time: 11:57:17
(UTC-07:00)
Language:

KITSAT 1 - Orbit

View from above orbital plane
View from above orbital plane
View from above satellite
View from above satellite

Ground track
Ground track

The orbit data is extracted from the following two-line orbital elements,

1 22077U 92052B   15240.56752164 -.00000033 +00000-0 +11493-3 0  9992
2 22077 066.0830 266.1349 0014116 296.1003 225.5145 12.86507453082294
Epoch (UTC): 28 August 2015 13:37:13
Eccentricity: 0.0014116
inclination: 66.0830°
perigee height: 1304 km
apogee height: 1326 km
right ascension of ascending node: 266.1349°
argument of perigee: 296.1003°
revolutions per day: 12.86507453
mean anomaly at epoch: 225.5145°
orbit number at epoch: 8229

The dashed part of the orbit path shows where the satellite is in the earth's shadow,  

DLR